Regional Weather Roundup
Issued by NWS

Home | Current Version | Previous Version | Graphics & Text | Print | Product List | Glossary On
Versions: 1 2 3 4 5 6 7 8 9 10 11 12 13 14 15 16 17 18 19 20 21 22 23 24 25 26 27 28 29 30 31 32 33 34 35 36 37 38 39 40 41 42 43 44 45 46 47 48 49 50
000
ASUS43 KMKX 060100
RWRWI

WISCONSIN REGIONAL WEATHER ROUNDUP
NATIONAL WEATHER SERVICE MILWAUKEE/SULLIVAN WI
800 PM CDT TUE MAY 05 2015

NOTE: "FAIR" INDICATES FEW OR NO CLOUDS BELOW 12,000 FEET WITH NO
SIGNIFICANT WEATHER AND/OR OBSTRUCTIONS TO VISIBILITY.

WIZ001-002-006>008-014>016-023>028-060200-
NORTHWEST WISCONSIN

CITY           SKY/WX    TMP DP  RH WIND       PRES   REMARKS
SUPERIOR ARPT  PTCLDY    48  33  57 E10       30.15S
ASHLAND        CLEAR     47  35  63 N6        30.18R
HAYWARD        CLEAR     65  27  23 S8        30.16S
SIREN          CLEAR     67  31  25 SE8       30.14R
CUMBERLAND     CLOUDY    63  28  27 SE12      30.16R
RICE LAKE      MOCLDY    64  29  26 SE12      30.18R
CHETEK         MOCLDY    64  33  31 E12G18    30.17S
LADYSMITH      PTCLDY    65  29  25 SE7       30.20S
EAU CLAIRE     NOT AVBL
MENOMONIE      CLOUDY    64  42  45 SE8       30.16S
NEW RICHMOND   PTCLDY    63  40  43 SE12G18   30.14S
OSCEOLA        PTCLDY    64  39  39 SE12      30.16S
$$

WIZ003>005-009-010-017-018-060200-
NORTH CENTRAL WISCONSIN

CITY           SKY/WX    TMP DP  RH WIND       PRES   REMARKS
MANITOWISH WTR CLEAR     64  31  29 S7        30.19S
ARBOR VITAE    CLEAR     65  24  21 S10       30.20S
WOODRUFF       CLEAR     65  24  21 S10       30.20S
RHINELANDER    PTCLDY    61  25  25 S8        30.23R
EAGLE RIVER    PTCLDY    63  25  23 S7        30.21R
LAND O LAKES   CLEAR     65  28  25 S8        30.21S
PHILLIPS       CLEAR     65  28  24 SE12      30.19R
TOMAHAWK       MOCLDY    61  24  24 CALM      30.22S
MEDFORD        MOCLDY    59  26  27 SE6       30.20S
MERRILL        MOCLDY    61  25  25 S7        30.23S
$$

WIZ029-030-035-036-043>047-060200-
CENTRAL WISCONSIN

CITY           SKY/WX    TMP DP  RH WIND       PRES   REMARKS
WAUSAU         CLOUDY    61  16  17 SE10      30.21S
MOSINEE        CLEAR     59  23  25 E3        30.23S
MARSHFIELD     CLOUDY    60  35  39 SE8       30.21R
STEVENS POINT  CLOUDY    59  26  27 SE6       30.22S
WAUPACA        CLOUDY    61  46  56 SE7       30.23R
WAUTOMA        NOT AVBL
WISC RAPIDS    CLOUDY    61  34  36 SE9       30.22S
CAMP DOUGLAS   NOT AVBL
$$

WIZ011>013-019>022-031-037>040-048>050-060200-
NORTHEAST WISCONSIN

CITY           SKY/WX    TMP DP  RH WIND       PRES   REMARKS
ANTIGO         CLOUDY    57  30  35 SE7       30.24S
SHAWANO        CLOUDY    62  23  22 E5        30.24F
OCONTO         CLOUDY    59  32  36 E3        30.24F
STURGEON BAY   MOCLDY    55  34  44 NW3       30.27S
GREEN BAY      CLOUDY    59  27  29 E3        30.24S
MANITOWOC      NOT AVBL
APPLETON       MOCLDY    57  36  44 SE7       30.24
CLINTONVILLE   CLOUDY    61  21  21 E5        30.23S
OSHKOSH        CLOUDY    56  47  71 S5        30.23S
$$

WIZ032>034-041-042-053>061-060200-
SOUTHWEST WISCONSIN

CITY           SKY/WX    TMP DP  RH WIND       PRES   REMARKS
LA CROSSE      LGT RAIN  56  53  90 SE6       30.18R FOG
SPARTA         CLOUDY    55  48  78 E8        30.19F
VIROQUA        CLOUDY    53  53 100 E16       30.17S
BOSCOBEL       LGT RAIN  56  53  90 CALM      30.19R FOG
PRAIRIE DU CHI CLOUDY    55  53  96 E3        30.16S
PLATTEVILLE    CLOUDY    55  54  94 E13       30.17S
$$

WIZ056-057-062-063-064-067-068-060200-
SOUTH CENTRAL WISCONSIN

CITY           SKY/WX    TMP DP  RH WIND       PRES   REMARKS
REEDSBURG      CLOUDY    54  51  89 E6        30.19S
BARABOO/DELLS  NOT AVBL
LONE ROCK      NOT AVBL
MINERAL POINT  RAIN      55  54  94 E8        30.19R
MADISON        CLOUDY    54  49  83 E9        30.21R
MIDDLETON      CLOUDY    56  51  83 E5        30.21S
WATERTOWN      CLOUDY    52  49  90 E8        30.22R
MONROE         CLOUDY    52  50  93 NE8       30.19S FOG
JANESVILLE     CLOUDY    52  50  93 E14       30.20R FOG
$$

WIZ051-052-058>065-066-070>072-060200-
SOUTHEAST WISCONSIN

CITY           SKY/WX    TMP DP  RH WIND       PRES   REMARKS
MILWAUKEE      CLOUDY    47  42  83 NE5       30.24S
WAUKESHA       PTCLDY    48  45  87 E8        30.24S
MILWAUKEE/TIMM NOT AVBL
RACINE         CLOUDY    46  42  86 NE7       30.25S
BURLINGTON     CLOUDY    47  46  97 E8        30.22S
KENOSHA        CLOUDY    48  46  93 E9        30.23S
FOND DU LAC    CLOUDY    54  46  74 SE6       30.23S
SHEBOYGAN      CLOUDY    53  43  68 CALM      30.24S
WEST BEND      CLOUDY    50  43  76 CALM      30.24S
JUNEAU         CLOUDY    52  46  79 E7        30.23F
$$

LSZ147-162-060200-
LAKE SUPERIOR

STATION/POSITION TIME  TEMP    WIND        PRES    WAVE
                       AIR SEA DIR/SP/G            HT/PER
                 (UTC) (F)     (DEG/KT/KT) (MB)    (FT/S)
W MID LAKE BUOY  2350   40 36   50/ 10/ 10 1023.0F   0
DEVILS ISLAND    0000   47     110/ 13/ 16 1022.1F
PORT WING        0040   44      30/ 10/ 13 1021.0R
SAXON HARBOR     0000   50     310/  3/  5 1021.0S
$$

LMZ867-665-643>646-060200-
LAKE MICHIGAN

STATION/POSITION TIME  TEMP    WIND        PRES    WAVE
                       AIR SEA DIR/SP/G            HT/PER
                 (UTC) (F)     (DEG/KT/KT) (MB)    (FT/S)
CHAMBERS ISLAND  0000   51      CALM  /  2 1024.7F
NORTHPORT PIER   0000   49     330/  3/  4 1024.0F
SISTER BAY       0017             CALM       N/A
KEWAUNEE LAKESHO 0000   50      40/  5/  8 1023.2F
SHEBOYGAN LAKESH 0000   44      60/  5/  5 1025.0F
PORT WASHINGTON  0000   47      40/  2/  3 1024.7S
ATWATER BUOY     0000   45     360/  6/  8 1024.9F
MILWAUKEE LAKESH 0000   47      10/  6/  8   N/A
KENOSHA   LAKESH 0000   45      20/  8/ 10 1023.7S
$$

TC  - TEMPERATURE IN CELSIUS
VSB - VISIBILITY IN STATUTE MILES
WCI - WIND CHILL INDEX
HX  - HEAT INDEX




USA.gov is the U.S. government's official web portal to all federal, state and local government web resources and services.